SCP
0 0 0 0 0 0 0 0 0 0 0 0 0 0 0 0 0 0 0 0 0 0 0 0 0 0 0 0 0 0 0 0 0 0 0 0 0 0 0 0 0 0 0 0 0
0 0 0 0 0 0 0 0 0 0 0 0 0 0 0 0 0 0 0 0 0 0 0 0 0 0 0 0 0 0 0 0 0 0 0 0 0 0 0 0 0 0 0 0 0
0 0 0 0 0 0 0 0 0 0 0 0 0 0 0 0 0 0 0 0 0 0 0 0 0 0 0 0 0 0 0 0 0 0 0 0 0 0 0 0 0 0 0 0 0
0 0 0 0 0 0 0 0 0 0 0 0 0 0 0 0 0 0 0 0 0 0 0 0 0 0 0 0 0 0 0 0 0 0 0 0 0 0 0 0 0 0 0 0 0
0 0 0 0 0 0 0 0 0 0 0 0 0 0 0 0 0 0 0 0 0 0 0 0 0 0 0 0 0 0 0 0 0 0 0 0 0 0 0 0 0 0 0 0 0
0 0 0 0 0 0 0 0 0 0 0 0 0 0 0 0 0 0 0 0 0 0 0 0 0 0 0 0 0 0 0 0 0 0 0 0 -0 0 0 0 0 0 0 0 0
0 0 0 0 0 0 0 0 0 0 0 0 0 0 0 0 0 0 0 0 0 0 0 0 0 0 0 0 0 0 0 0 0 0 0 0 -0 -0 0 0 0 0 0 0 0
0 0 0 0 0 0 0 0 0 0 0 0 0 0 0 0 0 0 0 0 0 0 0 0 0 0 0 0 0 0 0 0 0 0 0 0 -0 0 0 0 0 0 0 0 0
0 0 0 0 0 0 0 0 0 0 0 0 0 0 0 0 0 0 0 0 0 0 0 0 0 0 0 0 0 0 0 0 0 0 0 0 0 0 0 0 0 0 0 0 0
0 0 0 0 0 0 0 0 0 0 0 0 0 0 0 0 0 0 0 0 0 0 0 0 0 0 0 0 0 0 0 0 0 0 0 0 0 0 0 0 0 0 0 0 0
0 0 0 0 0 0 0 0 0 0 0 0 0 0 0 0 0 0 0 0 0 0 0 0 0 0 0 0 0 0 0 0 0 0 0 0 0 0 0 0 0 0 0 0 0
0 0 0 0 0 0 0 0 0 0 0 0 0 0 0 0 0 0 0 0 0 0 0 0 0 0 0 0 0 0 0 0 0 0 0 0 0 0 0 0 0 0 0 0 0
0 0 0 0 0 0 0 0 0 0 0 0 0 0 0 0 0 0 0 0 0 0 0 0 0 0 0 0 0 0 0 0 0 0 0 0 -0 0 0 0 0 0 0 0 0
0 0 0 0 0 0 0 0 0 0 0 0 0 0 0 0 0 0 0 0 0 0 0 0 0 0 0 0 0 0 0 0 0 0 0 0 -0 -0 0 0 0 0 0 0 0
0 0 0 0 0 0 0 0 0 0 0 0 0 0 0 0 0 0 0 0 0 0 0 0 0 0 0 0 0 0 0 0 0 0 0 0 0 -0 -0 0 0 0 0 0 0
0 0 0 0 0 0 0 0 0 0 0 0 0 0 0 0 0 0 0 0 0 0 0 0 0 0 0 0 0 0 0 0 0 0 0 0 0 -0 0 0 0 0 0 0 0
0 0 0 0 0 0 0 0 0 0 0 0 0 0 0 0 0 0 0 0 0 0 0 0 0 0 0 0 0 0 0 0 0 0 0 0 0 0 0 0 0 0 0 0 0
0 -0 0 0 0 0 0 0 0 0 0 0 0 0 0 0 0 0 0 0 0 0 0 0 0 0 0 0 0 0 0 0 0 0 0 0 0 0 -0 -0 0 0 0 0 0
0 0 0 0 0 0 0 0 0 0 0 0 0 0 0 0 0 0 0 0 0 0 0 0 0 0 0 0 0 0 0 0 0 0 0 0 0 0 0 0 0 0 0 0 0
-0 -0 0 0 0 0 0 0 0 0 0 0 0 0 0 0 0 0 0 0 0 0 0 0 0 0 0 0 0 0 0 0 0 0 0 0 0 0 0 0 0 0 0 0 0
-0 -0 0 0 0 0 0 0 0 0 0 0 0 0 0 0 0 0 0 0 0 0 0 0 0 0 0 0 0 0 0 0 0 0 0 0 -0 -0 0 0 0 0 0 0 0
-0 0 0 0 0 0 0 0 0 0 0 0 0 0 0 0 0 0 0 -0 -0 0 0 0 0 0 0 0 0 0 0 0 0 0 0 -0 -0 0 -0 -0 0 0 0 0 0
0 0 0 0 0 0 0 0 0 0 0 0 0 0 0 0 0 -0 -0 0 0 0 0 0 0 0 0 0 0 0 0 0 -0 0 -0 -0 -0 -0 -0 -0 0 0 0 0 0
0 0 0 0 0 0 0 0 0 0 0 0 0 0 0 0 -0 -0 -0 0 0 0 0 0 0 0 0 0 0 0 -0 -0 -0 -0 -0 -0 -0 -0 0 0 -0 0 0 0 0
0 0 0 0 0 0 0 0 0 0 0 0 0 0 0 -0 -0 -0 -0 0 -0 -0 -0 0 0 0 -0 -0 -0 -0 -0 -0 -0 -0 0 -0 -0 -0 0 0 0 0 0 0 0
0 0 0 0 0 0 0 0 0 0 0 0 0 0 0 0 -0 -0 -0 -0 0 0 0 0 0 0 -0 -0 -0 -0 -0 -0 -0 0 0 0 0 -0 0 0 -0 0 0 0 0
0 0 0 0 0 0 0 0 0 0 -0 0 0 -0 -0 0 -0 0 -0 -0 -0 0 0 0 0 0 0 -0 0 -0 -0 -0 -0 0 -0 0 0 -0 0 -0 -0 0 0 0 0
Wind_Speed_500mb
37 29 27 28 25 23 22 21 22 21 21 20 25 28 29 25 25 30 30 22 20 26 20 20 21 22 15 15 21 9 2 14 17 16 16 3 2 8 13 10 11 8 12 4 8
38 35 28 29 27 24 22 18 17 19 20 22 19 25 32 26 28 40 33 24 22 20 20 17 14 14 9 6 12 11 10 14 7 9 10 5 11 18 10 27 13 8 7 7 13
40 36 34 30 28 25 21 16 14 14 16 20 24 21 20 18 26 42 37 41 38 26 26 17 16 8 8 10 10 9 20 15 8 22 28 13 12 24 11 11 25 18 11 4 11
39 39 38 33 28 25 21 16 14 14 14 15 19 25 26 21 11 4 6 18 46 43 28 20 12 4 5 9 12 9 9 23 15 25 15 9 10 10 19 19 29 26 17 12 18
40 40 39 35 30 27 23 19 16 14 11 12 16 21 25 22 27 6 7 7 16 42 39 26 14 5 6 7 11 10 5 20 31 39 44 49 40 26 38 53 56 48 44 35 30
43 41 39 34 32 28 25 21 18 15 12 10 15 20 22 8 21 25 19 18 13 23 29 31 14 21 12 9 7 8 15 19 20 31 34 31 40 43 35 46 50 55 50 47 44
46 44 43 31 34 31 28 23 17 14 13 12 13 19 22 35 14 28 36 24 15 11 9 12 30 13 4 7 20 13 12 12 14 17 13 17 43 46 53 54 50 57 55 52 48
51 46 43 39 34 31 30 25 21 17 12 12 12 15 17 6 31 28 32 39 31 25 16 13 10 15 13 17 8 5 4 4 5 21 17 19 46 8 45 62 62 62 63 55 61
52 52 46 43 33 30 29 24 23 17 13 12 13 14 18 12 19 38 34 22 24 29 27 21 13 12 8 6 12 10 13 7 10 14 10 25 25 13 49 49 50 56 58 60 65
53 54 49 45 36 29 31 27 23 17 17 15 15 10 21 8 7 14 44 33 14 18 16 17 15 7 6 12 18 7 8 7 10 7 6 27 38 21 44 45 48 53 71 71 67
54 56 52 49 41 30 39 32 10 10 34 21 16 12 4 7 9 7 25 36 22 9 10 5 9 18 24 20 13 10 10 9 9 15 11 16 30 27 31 41 46 53 60 69 74
48 56 54 49 47 43 44 39 18 5 8 58 28 42 14 11 3 11 26 27 16 12 10 3 22 14 9 13 18 22 26 32 15 19 18 24 42 31 23 37 42 51 63 78 70
38 63 58 55 50 50 51 53 15 8 4 13 46 41 35 32 16 19 33 25 9 15 15 24 8 18 20 20 20 20 24 20 27 18 27 23 57 42 36 46 56 62 68 75 77
49 47 62 59 58 58 50 44 35 7 6 9 11 10 21 21 12 51 40 20 10 22 22 25 32 31 20 26 21 38 17 26 25 11 12 11 23 17 11 33 38 50 57 72 70
48 29 62 78 56 63 50 38 30 9 4 7 8 9 15 23 8 9 42 34 24 17 12 13 11 26 37 30 24 20 14 20 20 14 14 30 17 12 21 36 27 19 49 67 69
57 33 52 79 58 52 45 44 30 9 12 12 10 11 10 10 2 7 16 32 5 17 27 21 11 11 14 23 31 2 17 14 14 15 28 23 23 31 23 24 16 18 50 64 69
37 40 58 75 67 54 58 60 9 7 3 12 11 12 10 11 10 11 9 20 10 13 17 7 30 6 7 10 17 23 10 5 9 13 16 15 23 48 12 15 24 25 48 62 66
32 50 29 83 64 71 86 8 7 9 9 5 9 11 11 15 9 17 11 19 27 11 3 15 12 27 15 17 12 31 30 11 11 8 9 25 20 18 29 48 64 62 50 42 64
35 29 36 68 66 89 65 5 16 12 12 20 15 10 14 15 7 15 23 22 17 32 19 6 11 7 15 29 13 10 22 39 16 16 8 10 14 13 19 21 23 28 42 52 61
11 21 32 78 78 90 18 10 8 6 11 11 13 19 14 16 18 15 12 8 14 22 20 10 9 12 17 10 20 33 14 8 11 10 15 14 12 15 11 30 29 23 24 52 62
14 5 34 73 91 53 11 11 8 13 17 12 12 13 13 11 16 14 10 9 18 18 33 12 9 4 6 21 29 14 27 13 7 9 7 8 16 9 15 25 20 20 37 53 67
15 4 66 94 16 10 11 12 11 11 8 3 3 16 17 16 14 12 17 15 30 21 22 23 8 12 28 6 28 27 27 34 7 9 14 10 19 5 19 29 15 13 36 47 56
21 14 85 87 11 13 9 5 8 7 11 11 14 18 20 15 7 16 10 16 36 26 23 18 8 10 6 12 24 15 23 33 31 5 17 15 23 7 17 25 21 20 35 48 60
18 5 25 45 12 22 15 11 11 15 11 21 7 19 14 14 14 6 11 7 37 24 29 26 9 16 18 6 5 14 31 42 39 21 29 34 41 35 40 18 13 2 40 50 65
12 8 15 14 9 23 16 15 19 13 16 21 9 19 11 13 12 19 17 21 7 23 20 15 14 20 35 36 28 12 30 44 49 49 29 35 31 28 35 38 4 18 31 52 61
12 10 17 23 24 24 26 17 24 22 13 11 18 13 27 16 15 8 8 8 8 9 17 9 8 6 30 47 51 30 34 38 46 40 45 33 40 26 42 33 15 34 38 44 56
18 9 15 29 26 19 16 17 26 14 21 27 21 22 19 27 46 58 33 29 14 17 20 10 6 5 10 7 14 13 42 46 44 37 33 31 24 20 26 16 8 31 44 53 63
Wind_Direction_500mb
310 302 287 276 270 270 275 274 270 257 246 237 212 212 223 225 234 245 241 233 233 233 245 257 261 252 257 224 209 181 172 228 218 187 234 119 175 205 338 295 269 202 179 331 240
295 301 292 276 268 269 273 267 263 256 243 230 218 215 226 230 237 248 241 234 229 227 241 255 279 256 216 238 214 179 216 230 226 216 261 242 309 315 346 312 294 254 205 273 223
286 291 297 279 264 265 268 258 258 252 244 234 224 218 218 220 244 264 256 246 224 238 249 249 257 278 224 214 219 217 241 264 297 262 261 260 258 272 267 270 251 248 227 187 198
276 284 293 280 259 258 258 248 250 251 246 234 225 221 218 207 213 148 207 222 227 222 226 228 233 226 247 219 226 268 254 250 282 274 285 282 281 262 246 250 284 291 274 233 208
266 271 279 281 264 250 251 242 245 246 247 230 215 209 205 214 232 206 142 165 188 201 213 224 217 193 223 245 261 228 253 276 277 272 276 285 273 259 257 271 280 279 274 268 256
257 262 271 281 262 249 244 240 242 240 238 232 209 207 209 228 251 200 162 138 140 184 213 224 223 237 282 256 217 278 286 279 285 277 274 271 275 280 262 268 272 276 273 260 267
246 255 259 269 262 254 235 233 235 230 228 229 221 218 227 240 226 217 207 184 162 191 197 229 232 211 325 281 281 283 297 291 241 249 251 281 268 251 264 270 272 270 270 256 256
243 247 249 259 260 249 231 225 236 228 232 225 231 244 247 256 217 199 210 225 225 207 225 241 223 230 249 286 296 296 262 283 251 199 229 180 250 227 240 254 259 262 265 253 258
240 245 243 247 251 241 219 227 231 225 228 228 231 246 267 228 232 210 211 213 210 217 232 246 230 229 245 245 279 196 258 214 321 222 226 204 276 252 245 254 260 262 266 267 266
241 238 236 242 235 232 208 218 224 220 204 214 215 255 249 231 205 211 215 204 172 194 211 219 188 194 173 199 233 245 256 248 220 205 278 264 267 287 281 279 267 260 263 265 267
237 233 232 232 229 221 195 193 181 223 204 200 211 224 217 193 191 195 192 189 192 163 176 202 202 206 208 221 251 298 281 283 313 298 335 280 292 285 271 263 258 262 264 266 261
246 227 227 227 219 203 203 194 196 132 234 227 218 226 155 140 212 189 183 173 179 192 137 289 244 223 220 210 239 249 260 264 282 268 280 293 284 281 271 268 253 251 252 256 260
289 224 224 222 211 200 204 209 216 235 281 259 229 234 234 241 231 220 191 192 179 198 189 219 206 204 228 247 238 239 241 252 256 289 279 289 282 271 259 247 251 243 245 252 256
263 235 220 209 192 196 200 205 209 230 36 237 197 225 197 198 255 221 205 173 194 206 215 245 240 239 260 236 218 253 212 232 247 246 252 171 281 250 245 244 238 238 231 241 246
264 262 215 202 183 189 202 188 187 174 2 156 157 162 174 174 136 189 207 203 220 188 163 222 205 216 228 231 201 246 221 226 228 234 273 257 280 279 202 247 259 245 238 236 240
263 276 236 189 191 200 190 167 157 58 252 175 136 168 156 210 204 117 180 207 161 225 219 231 193 192 218 232 217 215 229 261 241 230 248 233 221 269 241 234 250 242 243 240 233
261 256 202 196 182 176 160 146 97 169 152 176 179 172 188 181 204 192 172 200 207 198 221 217 233 235 254 189 189 201 230 233 222 210 239 199 219 246 256 259 241 230 237 240 231
260 258 274 198 181 162 157 116 145 187 183 173 130 142 189 167 208 202 223 226 223 217 249 219 232 197 202 213 172 191 200 213 211 223 231 207 238 241 221 232 235 243 249 246 219
258 290 286 178 176 165 152 164 199 192 155 151 144 181 202 203 199 201 225 234 207 197 220 200 257 168 223 212 180 171 212 217 258 277 268 235 290 291 242 244 237 234 221 216 207
246 267 243 176 167 163 161 198 210 175 123 152 180 196 196 193 190 192 200 227 217 187 184 224 264 202 206 154 207 217 150 190 199 212 246 256 253 240 288 245 233 218 210 205 201
151 302 189 167 167 166 186 203 193 179 136 164 199 185 215 179 199 187 224 256 201 191 181 192 180 283 106 206 193 192 228 219 256 197 217 289 265 233 280 287 220 211 201 183 183
129 219 174 168 158 179 163 167 195 156 150 176 219 230 198 187 188 215 218 224 182 144 185 209 226 233 224 205 219 207 206 207 216 228 235 297 261 238 14 319 211 171 166 170 171
170 195 167 167 161 168 149 141 175 140 170 208 217 212 200 201 210 203 195 227 174 166 177 164 228 259 237 217 217 210 219 215 223 306 218 214 260 200 346 4 339 140 146 153 161
146 141 148 186 163 163 157 189 190 207 216 210 263 209 192 227 225 265 239 253 184 184 141 160 233 223 234 219 171 201 208 202 206 229 238 238 270 286 302 342 350 333 150 155 161
144 179 166 175 206 168 178 175 191 191 209 215 231 233 221 221 224 233 242 261 184 183 166 191 250 238 251 252 234 227 217 198 207 216 218 252 265 283 293 289 266 188 161 151 163
197 160 169 159 157 163 183 203 198 199 206 204 229 218 218 234 213 216 166 190 196 170 186 193 265 255 282 263 235 219 219 214 210 219 237 263 271 242 255 279 196 175 169 163 169
344 122 145 163 175 177 188 189 209 161 211 233 214 234 252 232 236 251 264 269 206 188 192 204 249 270 263 59 123 220 224 211 200 213 219 224 249 285 288 295 237 185 184 179 179
Wind_Speed_850mb
37 29 27 28 25 23 22 21 22 21 21 20 25 28 29 25 25 30 30 22 20 26 20 20 21 22 15 15 21 9 2 14 17 16 16 3 2 8 13 10 11 8 12 4 8
38 35 28 29 27 24 22 18 17 19 20 22 19 25 32 26 28 40 33 24 22 20 20 17 14 14 9 6 12 11 10 14 7 9 10 5 11 18 10 27 13 8 7 7 13
40 36 34 30 28 25 21 16 14 14 16 20 24 21 20 18 26 42 37 41 38 26 26 17 16 8 8 10 10 9 20 15 8 22 28 13 12 24 11 11 25 18 11 4 11
39 39 38 33 28 25 21 16 14 14 14 15 19 25 26 21 11 4 6 18 46 43 28 20 12 4 5 9 12 9 9 23 15 25 15 9 10 10 19 19 29 26 17 12 18
40 40 39 35 30 27 23 19 16 14 11 12 16 21 25 22 27 6 7 7 16 42 39 26 14 5 6 7 11 10 5 20 31 39 44 49 40 26 38 53 56 48 44 35 30
43 41 39 34 32 28 25 21 18 15 12 10 15 20 22 8 21 25 19 18 13 23 29 31 14 21 12 9 7 8 15 19 20 31 34 31 40 43 35 46 50 55 50 47 44
46 44 43 31 34 31 28 23 17 14 13 12 13 19 22 35 14 28 36 24 15 11 9 12 30 13 4 7 20 13 12 12 14 17 13 17 43 46 53 54 50 57 55 52 48
51 46 43 39 34 31 30 25 21 17 12 12 12 15 17 6 31 28 32 39 31 25 16 13 10 15 13 17 8 5 4 4 5 21 17 19 46 8 45 62 62 62 63 55 61
52 52 46 43 33 30 29 24 23 17 13 12 13 14 18 12 19 38 34 22 24 29 27 21 13 12 8 6 12 10 13 7 10 14 10 25 25 13 49 49 50 56 58 60 65
53 54 49 45 36 29 31 27 23 17 17 15 15 10 21 8 7 14 44 33 14 18 16 17 15 7 6 12 18 7 8 7 10 7 6 27 38 21 44 45 48 53 71 71 67
54 56 52 49 41 30 39 32 10 10 34 21 16 12 4 7 9 7 25 36 22 9 10 5 9 18 24 20 13 10 10 9 9 15 11 16 30 27 31 41 46 53 60 69 74
48 56 54 49 47 43 44 39 18 5 8 58 28 42 14 11 3 11 26 27 16 12 10 3 22 14 9 13 18 22 26 32 15 19 18 24 42 31 23 37 42 51 63 78 70
38 63 58 55 50 50 51 53 15 8 4 13 46 41 35 32 16 19 33 25 9 15 15 24 8 18 20 20 20 20 24 20 27 18 27 23 57 42 36 46 56 62 68 75 77
49 47 62 59 58 58 50 44 35 7 6 9 11 10 21 21 12 51 40 20 10 22 22 25 32 31 20 26 21 38 17 26 25 11 12 11 23 17 11 33 38 50 57 72 70
48 29 62 78 56 63 50 38 30 9 4 7 8 9 15 23 8 9 42 34 24 17 12 13 11 26 37 30 24 20 14 20 20 14 14 30 17 12 21 36 27 19 49 67 69
57 33 52 79 58 52 45 44 30 9 12 12 10 11 10 10 2 7 16 32 5 17 27 21 11 11 14 23 31 2 17 14 14 15 28 23 23 31 23 24 16 18 50 64 69
37 40 58 75 67 54 58 60 9 7 3 12 11 12 10 11 10 11 9 20 10 13 17 7 30 6 7 10 17 23 10 5 9 13 16 15 23 48 12 15 24 25 48 62 66
32 50 29 83 64 71 86 8 7 9 9 5 9 11 11 15 9 17 11 19 27 11 3 15 12 27 15 17 12 31 30 11 11 8 9 25 20 18 29 48 64 62 50 42 64
35 29 36 68 66 89 65 5 16 12 12 20 15 10 14 15 7 15 23 22 17 32 19 6 11 7 15 29 13 10 22 39 16 16 8 10 14 13 19 21 23 28 42 52 61
11 21 32 78 78 90 18 10 8 6 11 11 13 19 14 16 18 15 12 8 14 22 20 10 9 12 17 10 20 33 14 8 11 10 15 14 12 15 11 30 29 23 24 52 62
14 5 34 73 91 53 11 11 8 13 17 12 12 13 13 11 16 14 10 9 18 18 33 12 9 4 6 21 29 14 27 13 7 9 7 8 16 9 15 25 20 20 37 53 67
15 4 66 94 16 10 11 12 11 11 8 3 3 16 17 16 14 12 17 15 30 21 22 23 8 12 28 6 28 27 27 34 7 9 14 10 19 5 19 29 15 13 36 47 56
21 14 85 87 11 13 9 5 8 7 11 11 14 18 20 15 7 16 10 16 36 26 23 18 8 10 6 12 24 15 23 33 31 5 17 15 23 7 17 25 21 20 35 48 60
18 5 25 45 12 22 15 11 11 15 11 21 7 19 14 14 14 6 11 7 37 24 29 26 9 16 18 6 5 14 31 42 39 21 29 34 41 35 40 18 13 2 40 50 65
12 8 15 14 9 23 16 15 19 13 16 21 9 19 11 13 12 19 17 21 7 23 20 15 14 20 35 36 28 12 30 44 49 49 29 35 31 28 35 38 4 18 31 52 61
12 10 17 23 24 24 26 17 24 22 13 11 18 13 27 16 15 8 8 8 8 9 17 9 8 6 30 47 51 30 34 38 46 40 45 33 40 26 42 33 15 34 38 44 56
18 9 15 29 26 19 16 17 26 14 21 27 21 22 19 27 46 58 33 29 14 17 20 10 6 5 10 7 14 13 42 46 44 37 33 31 24 20 26 16 8 31 44 53 63
Wind_Direction_850mb
310 302 287 276 270 270 275 274 270 257 246 237 212 212 223 225 234 245 241 233 233 233 245 257 261 252 257 224 209 181 172 228 218 187 234 119 175 205 338 295 269 202 179 331 240
295 301 292 276 268 269 273 267 263 256 243 230 218 215 226 230 237 248 241 234 229 227 241 255 279 256 216 238 214 179 216 230 226 216 261 242 309 315 346 312 294 254 205 273 223
286 291 297 279 264 265 268 258 258 252 244 234 224 218 218 220 244 264 256 246 224 238 249 249 257 278 224 214 219 217 241 264 297 262 261 260 258 272 267 270 251 248 227 187 198
276 284 293 280 259 258 258 248 250 251 246 234 225 221 218 207 213 148 207 222 227 222 226 228 233 226 247 219 226 268 254 250 282 274 285 282 281 262 246 250 284 291 274 233 208
266 271 279 281 264 250 251 242 245 246 247 230 215 209 205 214 232 206 142 165 188 201 213 224 217 193 223 245 261 228 253 276 277 272 276 285 273 259 257 271 280 279 274 268 256
257 262 271 281 262 249 244 240 242 240 238 232 209 207 209 228 251 200 162 138 140 184 213 224 223 237 282 256 217 278 286 279 285 277 274 271 275 280 262 268 272 276 273 260 267
246 255 259 269 262 254 235 233 235 230 228 229 221 218 227 240 226 217 207 184 162 191 197 229 232 211 325 281 281 283 297 291 241 249 251 281 268 251 264 270 272 270 270 256 256
243 247 249 259 260 249 231 225 236 228 232 225 231 244 247 256 217 199 210 225 225 207 225 241 223 230 249 286 296 296 262 283 251 199 229 180 250 227 240 254 259 262 265 253 258
240 245 243 247 251 241 219 227 231 225 228 228 231 246 267 228 232 210 211 213 210 217 232 246 230 229 245 245 279 196 258 214 321 222 226 204 276 252 245 254 260 262 266 267 266
241 238 236 242 235 232 208 218 224 220 204 214 215 255 249 231 205 211 215 204 172 194 211 219 188 194 173 199 233 245 256 248 220 205 278 264 267 287 281 279 267 260 263 265 267
237 233 232 232 229 221 195 193 181 223 204 200 211 224 217 193 191 195 192 189 192 163 176 202 202 206 208 221 251 298 281 283 313 298 335 280 292 285 271 263 258 262 264 266 261
246 227 227 227 219 203 203 194 196 132 234 227 218 226 155 140 212 189 183 173 179 192 137 289 244 223 220 210 239 249 260 264 282 268 280 293 284 281 271 268 253 251 252 256 260
289 224 224 222 211 200 204 209 216 235 281 259 229 234 234 241 231 220 191 192 179 198 189 219 206 204 228 247 238 239 241 252 256 289 279 289 282 271 259 247 251 243 245 252 256
263 235 220 209 192 196 200 205 209 230 36 237 197 225 197 198 255 221 205 173 194 206 215 245 240 239 260 236 218 253 212 232 247 246 252 171 281 250 245 244 238 238 231 241 246
264 262 215 202 183 189 202 188 187 174 2 156 157 162 174 174 136 189 207 203 220 188 163 222 205 216 228 231 201 246 221 226 228 234 273 257 280 279 202 247 259 245 238 236 240
263 276 236 189 191 200 190 167 157 58 252 175 136 168 156 210 204 117 180 207 161 225 219 231 193 192 218 232 217 215 229 261 241 230 248 233 221 269 241 234 250 242 243 240 233
261 256 202 196 182 176 160 146 97 169 152 176 179 172 188 181 204 192 172 200 207 198 221 217 233 235 254 189 189 201 230 233 222 210 239 199 219 246 256 259 241 230 237 240 231
260 258 274 198 181 162 157 116 145 187 183 173 130 142 189 167 208 202 223 226 223 217 249 219 232 197 202 213 172 191 200 213 211 223 231 207 238 241 221 232 235 243 249 246 219
258 290 286 178 176 165 152 164 199 192 155 151 144 181 202 203 199 201 225 234 207 197 220 200 257 168 223 212 180 171 212 217 258 277 268 235 290 291 242 244 237 234 221 216 207
246 267 243 176 167 163 161 198 210 175 123 152 180 196 196 193 190 192 200 227 217 187 184 224 264 202 206 154 207 217 150 190 199 212 246 256 253 240 288 245 233 218 210 205 201
151 302 189 167 167 166 186 203 193 179 136 164 199 185 215 179 199 187 224 256 201 191 181 192 180 283 106 206 193 192 228 219 256 197 217 289 265 233 280 287 220 211 201 183 183
129 219 174 168 158 179 163 167 195 156 150 176 219 230 198 187 188 215 218 224 182 144 185 209 226 233 224 205 219 207 206 207 216 228 235 297 261 238 14 319 211 171 166 170 171
170 195 167 167 161 168 149 141 175 140 170 208 217 212 200 201 210 203 195 227 174 166 177 164 228 259 237 217 217 210 219 215 223 306 218 214 260 200 346 4 339 140 146 153 161
146 141 148 186 163 163 157 189 190 207 216 210 263 209 192 227 225 265 239 253 184 184 141 160 233 223 234 219 171 201 208 202 206 229 238 238 270 286 302 342 350 333 150 155 161
144 179 166 175 206 168 178 175 191 191 209 215 231 233 221 221 224 233 242 261 184 183 166 191 250 238 251 252 234 227 217 198 207 216 218 252 265 283 293 289 266 188 161 151 163
197 160 169 159 157 163 183 203 198 199 206 204 229 218 218 234 213 216 166 190 196 170 186 193 265 255 282 263 235 219 219 214 210 219 237 263 271 242 255 279 196 175 169 163 169
344 122 145 163 175 177 188 189 209 161 211 233 214 234 252 232 236 251 264 269 206 188 192 204 249 270 263 59 123 220 224 211 200 213 219 224 249 285 288 295 237 185 184 179 179